Location: Kalberh�ni
(46.4610°N, 7.2453°E)
Time: 02:32:26
(UTC+00:00)

Lacrosse 5 rocket - Pass Details

Date: 20 June 2021
Orbit: 459 x 634 km, 57.0° (Epoch: 25 July)

Event Time Altitude Azimuth Distance (km) Brightness Sun altitude
Rises 23:43:32 0° 300° (WNW) 2,493 5.0 -20.1°
Reaches altitude 10° 23:46:22 10° 324° (NW) 1,611 4.4 -20.0°
Maximum altitude 23:48:35 15° 2° (N) 1,312 4.3 -20.0°
Drops below altitude 10° 23:50:49 10° 41° (NE) 1,616 4.5 -20.0°
Sets 23:53:40 0° 65° (ENE) 2,506 5.1 -19.9°
